• In Hungary
  • List of Countries
  • For 7 days
  • Water Temperature
  • Satellite Maps
  • Weather Map
  • News
  • Weather Widgets
  • user-avatar
    Login

    Hourly Weather La Rioja

    Today, 16 January, Tuesday

    Time Temperature Precipitation Wind Pressure Humidity
    00:00 +28°C° 0 mm 3 mps 713 mmHg 51%
    01:00 +28°C° 0 mm 3 mps 713 mmHg 54%
    02:00 +27°C° 0 mm 3 mps 713 mmHg 56%
    03:00 +27°C° 0 mm 2 mps 713 mmHg 58%
    04:00 +26°C° 0 mm 2 mps 713 mmHg 59%
    05:00 +26°C° 0 mm 2 mps 713 mmHg 61%
    06:00 +26°C° 0 mm 2 mps 713 mmHg 59%
    07:00 +27°C° 0 mm 2 mps 714 mmHg 56%
    08:00 +28°C° 0 mm 2 mps 714 mmHg 54%
    09:00 +29°C° 0 mm 2 mps 715 mmHg 49%
    10:00 +30°C° 0 mm 3 mps 715 mmHg 45%
    11:00 +33°C° 0 mm 3 mps 715 mmHg 40%
    12:00 +34°C° 0 mm 3 mps 714 mmHg 39%
    13:00 +34°C° 0 mm 3 mps 713 mmHg 37%
    14:00 +35°C° 0 mm 3 mps 713 mmHg 35%
    15:00 +36°C° 0 mm 4 mps 712 mmHg 35%
    16:00 +36°C° 0 mm 4 mps 712 mmHg 34%
    17:00 +36°C° 0 mm 4 mps 711 mmHg 33%
    18:00 +35°C° 0.1 mm 4 mps 712 mmHg 36%
    19:00 +34°C° 0.1 mm 5 mps 712 mmHg 39%
    20:00 +33°C° 0.1 mm 5 mps 712 mmHg 42%
    21:00 +33°C° 0.2 mm 4 mps 713 mmHg 45%
    22:00 +31°C° 0.2 mm 3 mps 713 mmHg 48%
    23:00 +30°C° 0.2 mm 3 mps 714 mmHg 50%

    Tomorrow, 17 January, Wednesday

    Time Temperature Precipitation Wind Pressure Humidity
    00:00 +30°C° 0.4 mm 2 mps 713 mmHg 52%
    01:00 +29°C° 0.4 mm 2 mps 713 mmHg 54%
    02:00 +28°C° 0.4 mm 2 mps 713 mmHg 56%
    03:00 +28°C° 0 mm 2 mps 712 mmHg 57%
    04:00 +27°C° 0 mm 2 mps 712 mmHg 58%
    05:00 +27°C° 0 mm 2 mps 712 mmHg 60%
    06:00 +28°C° 0 mm 2 mps 712 mmHg 56%
    07:00 +29°C° 0 mm 3 mps 713 mmHg 52%
    08:00 +29°C° 0 mm 3 mps 714 mmHg 49%
    09:00 +32°C° 0.1 mm 4 mps 714 mmHg 45%
    10:00 +33°C° 0.1 mm 5 mps 714 mmHg 42%
    11:00 +34°C° 0.1 mm 6 mps 714 mmHg 38%
    12:00 +35°C° 0.3 mm 6 mps 714 mmHg 36%
    13:00 +36°C° 0.3 mm 7 mps 714 mmHg 35%
    14:00 +36°C° 0.3 mm 7 mps 713 mmHg 33%
    15:00 +36°C° 0.4 mm 7 mps 713 mmHg 34%
    16:00 +36°C° 0.4 mm 6 mps 713 mmHg 35%
    17:00 +35°C° 0.4 mm 6 mps 713 mmHg 36%
    18:00 +34°C° 0.5 mm 5 mps 713 mmHg 39%
    19:00 +33°C° 0.5 mm 4 mps 714 mmHg 42%
    20:00 +31°C° 0.5 mm 3 mps 714 mmHg 46%
    21:00 +30°C° 0.5 mm 3 mps 715 mmHg 50%
    22:00 +29°C° 0.5 mm 3 mps 715 mmHg 54%
    23:00 +29°C° 0.5 mm 2 mps 716 mmHg 58%

    Day after tomorrow, 18 January, Thursday

    Time Temperature Precipitation Wind Pressure Humidity
    00:00 +28°C° 0.7 mm 2 mps 716 mmHg 61%
    01:00 +27°C° 0.7 mm 2 mps 715 mmHg 64%
    02:00 +27°C° 0.7 mm 1 mps 715 mmHg 67%
    03:00 +26°C° 0.8 mm 1 mps 715 mmHg 68%
    04:00 +26°C° 0.8 mm 1 mps 715 mmHg 69%
    05:00 +26°C° 0.8 mm 1 mps 715 mmHg 70%
    06:00 +26°C° 0.5 mm 1 mps 716 mmHg 66%
    07:00 +27°C° 0.5 mm 1 mps 717 mmHg 62%
    08:00 +28°C° 0.5 mm 1 mps 717 mmHg 58%
    09:00 +29°C° 0.5 mm 1 mps 717 mmHg 53%
    10:00 +30°C° 0.5 mm 2 mps 717 mmHg 49%
    11:00 +31°C° 0.5 mm 2 mps 717 mmHg 45%
    12:00 +32°C° 0.4 mm 2 mps 716 mmHg 41%
    13:00 +34°C° 0.4 mm 3 mps 715 mmHg 38%
    14:00 +35°C° 0.4 mm 3 mps 715 mmHg 35%
    15:00 +35°C° 0.4 mm 4 mps 714 mmHg 34%
    16:00 +35°C° 0.4 mm 4 mps 714 mmHg 34%
    17:00 +35°C° 0.4 mm 5 mps 713 mmHg 33%
    18:00 +34°C° 0.4 mm 4 mps 714 mmHg 36%
    19:00 +33°C° 0.4 mm 4 mps 714 mmHg 38%
    20:00 +31°C° 0.4 mm 3 mps 714 mmHg 41%
    21:00 +31°C° 0.6 mm 3 mps 715 mmHg 44%
    22:00 +30°C° 0.6 mm 2 mps 716 mmHg 47%
    23:00 +29°C° 0.6 mm 2 mps 716 mmHg 50%

    19 January, Friday

    Time Temperature Precipitation Wind Pressure Humidity
    00:00 +28°C° 0.1 mm 2 mps 716 mmHg 52%
    01:00 +28°C° 0.1 mm 2 mps 716 mmHg 54%
    02:00 +27°C° 0.1 mm 1 mps 715 mmHg 56%
    03:00 +27°C° 0.1 mm 1 mps 715 mmHg 57%
    04:00 +26°C° 0.1 mm 1 mps 716 mmHg 59%
    05:00 +26°C° 0.1 mm 1 mps 716 mmHg 61%
    06:00 +27°C° 0.1 mm 1 mps 716 mmHg 56%
    07:00 +28°C° 0.1 mm 1 mps 717 mmHg 52%
    08:00 +29°C° 0.1 mm 1 mps 717 mmHg 47%
    09:00 +30°C° 0 mm 2 mps 717 mmHg 42%
    10:00 +31°C° 0 mm 2 mps 717 mmHg 37%
    11:00 +34°C° 0 mm 3 mps 717 mmHg 32%
    12:00 +35°C° 0.1 mm 4 mps 716 mmHg 30%
    13:00 +35°C° 0.1 mm 4 mps 715 mmHg 28%
    14:00 +36°C° 0.1 mm 5 mps 715 mmHg 26%
    15:00 +37°C° 0 mm 5 mps 714 mmHg 26%
    16:00 +38°C° 0 mm 6 mps 713 mmHg 25%
    17:00 +38°C° 0 mm 6 mps 713 mmHg 25%
    18:00 +36°C° 0.2 mm 5 mps 713 mmHg 28%
    19:00 +34°C° 0.2 mm 5 mps 713 mmHg 31%
    20:00 +33°C° 0.2 mm 4 mps 714 mmHg 34%
    21:00 +31°C° 0.5 mm 3 mps 714 mmHg 38%
    22:00 +30°C° 0.5 mm 3 mps 714 mmHg 42%
    23:00 +29°C° 0.5 mm 2 mps 714 mmHg 46%

    20 January, Saturday

    Time Temperature Precipitation Wind Pressure Humidity
    00:00 +29°C° 0.6 mm 2 mps 714 mmHg 48%
    01:00 +28°C° 0.6 mm 2 mps 714 mmHg 50%
    02:00 +28°C° 0.6 mm 2 mps 713 mmHg 51%
    03:00 +27°C° 0.1 mm 2 mps 713 mmHg 53%
    04:00 +27°C° 0.1 mm 1 mps 713 mmHg 55%
    05:00 +26°C° 0.1 mm 1 mps 712 mmHg 57%
    06:00 +27°C° 0 mm 1 mps 713 mmHg 53%
    07:00 +28°C° 0 mm 1 mps 713 mmHg 50%
    08:00 +29°C° 0 mm 1 mps 713 mmHg 47%
    09:00 +30°C° 0 mm 2 mps 713 mmHg 43%
    10:00 +32°C° 0 mm 2 mps 713 mmHg 40%
    11:00 +34°C° 0 mm 3 mps 712 mmHg 37%
    12:00 +35°C° 0 mm 4 mps 711 mmHg 35%
    13:00 +36°C° 0 mm 4 mps 711 mmHg 33%
    14:00 +37°C° 0 mm 5 mps 710 mmHg 31%
    15:00 +37°C° 0.3 mm 5 mps 709 mmHg 33%
    16:00 +38°C° 0.3 mm 6 mps 709 mmHg 34%
    17:00 +38°C° 0.3 mm 7 mps 708 mmHg 36%
    18:00 +36°C° 0.8 mm 6 mps 709 mmHg 41%
    19:00 +34°C° 0.8 mm 6 mps 709 mmHg 46%
    20:00 +33°C° 0.8 mm 5 mps 709 mmHg 51%
    21:00 +32°C° 1.5 mm 4 mps 709 mmHg 54%
    22:00 +30°C° 1.5 mm 3 mps 710 mmHg 58%
    23:00 +30°C° 1.5 mm 2 mps 710 mmHg 62%

    21 January, Sunday

    Time Temperature Precipitation Wind Pressure Humidity
    00:00 +29°C° 0.4 mm 2 mps 710 mmHg 63%
    01:00 +29°C° 0.4 mm 2 mps 709 mmHg 64%
    02:00 +28°C° 0.4 mm 1 mps 709 mmHg 65%
    03:00 +28°C° 0.2 mm 2 mps 709 mmHg 66%
    04:00 +28°C° 0.2 mm 2 mps 709 mmHg 67%
    05:00 +27°C° 0.2 mm 2 mps 709 mmHg 69%
    06:00 +28°C° 0.3 mm 3 mps 710 mmHg 66%
    07:00 +28°C° 0.3 mm 4 mps 710 mmHg 64%
    08:00 +29°C° 0.3 mm 5 mps 711 mmHg 62%
    09:00 +30°C° 0.2 mm 5 mps 711 mmHg 58%
    10:00 +32°C° 0.2 mm 5 mps 711 mmHg 53%
    11:00 +33°C° 0.2 mm 5 mps 711 mmHg 49%
    12:00 +34°C° 0.7 mm 5 mps 710 mmHg 47%
    13:00 +35°C° 0.7 mm 5 mps 710 mmHg 44%
    14:00 +35°C° 0.7 mm 5 mps 709 mmHg 42%
    15:00 +35°C° 0.5 mm 5 mps 709 mmHg 42%
    16:00 +35°C° 0.5 mm 5 mps 709 mmHg 42%
    17:00 +35°C° 0.5 mm 5 mps 709 mmHg 41%
    18:00 +34°C° 0.5 mm 5 mps 709 mmHg 48%
    19:00 +33°C° 0.5 mm 4 mps 710 mmHg 54%
    20:00 +30°C° 0.5 mm 3 mps 710 mmHg 60%
    21:00 +30°C° 1.2 mm 2 mps 710 mmHg 62%
    22:00 +29°C° 1.2 mm 2 mps 711 mmHg 65%
    23:00 +29°C° 1.2 mm 1 mps 711 mmHg 67%
    Show more